Weather History for Montague, CA

Change the Weather History Date:

Thursday, January 2, 2014

  Actual Average Record
Temperature  
Mean Temperature 35 °F 35 °F  
Max Temperature 52 °F 44 °F 61 °F (2012)
Min Temperature 18 °F 26 °F 8 °F (1975)
Degree Days  
Heating Degree Days 30 30  
Month to date heating degree days 62 60  
Since 1 July heating degree days 2540 2293  
Cooling Degree Days 0 0  
Month to date cooling degree days 0 0  
Year to date cooling degree days 0 0  
Moisture  
Dew Point 20 °F    
Average Humidity 63    
Maximum Humidity 84    
Minimum Humidity 35    
Precipitation  
Precipitation 0.00 in 0.12 in 1.27 in (1997)
Month to date precipitation 0.00 0.24  
Year to date precipitation 0.00 0.24  
Sea Level Pressure  
Sea Level Pressure 30.34 in    
Wind  
Wind Speed 1 mph (South)    
Max Wind Speed 9 mph    
Max Gust Speed 14 mph    
Visibility 10 miles    
Events      
T = Trace of Precipitation, MM = Missing Value Source: NWS Daily Summary

Daily Weather History Graph

Daily Weather History Graph

Search for Another Location

Airport:

Trip Planner

Search our weather history database for the weather conditions in past years. The results will help you decide how hot, cold, wet, or windy it might be!

Date:

Astronomy

Jan. 02, 2014 Rise Set
Actual Time 7:37 AM PST 4:50 PM PST
Civil Twilight 7:05 AM PST 5:22 PM PST
Nautical Twilight 6:31 AM PST 5:57 PM PST
Astronomical Twilight 5:57 AM PST 6:31 PM PST
Moon 8:21 AM PST (1/2) 6:56 PM PST (1/2)
Length of Visible Light 10h 16m
Length of Day
9h 13m
Waxing Crescent, 3% of the Moon is Illuminated
Jan 2
Waxing Crescent
Jan 7
First Quarter
Jan 15
Full
Jan 23
Last Quarter
Jan 30
New

Hourly Weather History & Observations

Time (PST) Temp. Windchill Dew Point Humidity Pressure Visibility Wind Dir Wind Speed Gust Speed Precip Events Conditions
12:53 AM 24.1 °F - 17.1 °F 75% 30.37 in 10.0 mi Calm Calm - N/A   Clear
1:53 AM 23.0 °F - 16.0 °F 74% 30.38 in 10.0 mi Calm Calm - N/A   Clear
2:53 AM 23.0 °F - 18.0 °F 81% 30.37 in 10.0 mi Calm Calm - N/A   Clear
3:53 AM 19.9 °F - 16.0 °F 85% 30.38 in 10.0 mi Calm Calm - N/A   Clear
4:53 AM 19.9 °F 14.9 °F 16.0 °F 85% 30.39 in 10.0 mi SW 3.5 mph - N/A   Clear
5:53 AM 19.9 °F 13.4 °F 16.0 °F 85% 30.40 in 10.0 mi WSW 4.6 mph - N/A   Clear
6:53 AM 19.9 °F 13.4 °F 15.1 °F 81% 30.41 in 10.0 mi East 4.6 mph - N/A   Clear
7:53 AM 19.0 °F - 14.0 °F 81% 30.43 in 10.0 mi Calm Calm - N/A   Clear
8:53 AM 25.0 °F - 19.0 °F 78% 30.43 in 10.0 mi Calm Calm - N/A   Clear
9:53 AM 32.0 °F - 21.9 °F 66% 30.43 in 10.0 mi Calm Calm - N/A   Clear
10:53 AM 37.9 °F - 26.1 °F 62% 30.41 in 10.0 mi Calm Calm - N/A   Clear
11:53 AM 42.1 °F - 25.0 °F 51% 30.38 in 10.0 mi Calm Calm - N/A   Clear
12:53 PM 46.0 °F 43.9 °F 26.1 °F 46% 30.33 in 10.0 mi SW 4.6 mph - N/A   Clear
1:53 PM 48.9 °F - 25.0 °F 39% 30.29 in 10.0 mi Calm Calm - N/A   Clear
2:53 PM 50.0 °F - 24.1 °F 36% 30.27 in 10.0 mi Calm Calm - N/A   Clear
3:53 PM 52.0 °F - 24.1 °F 34% 30.26 in 10.0 mi Calm Calm - N/A   Clear
4:53 PM 43.0 °F 41.3 °F 23.0 °F 45% 30.27 in 10.0 mi South 3.5 mph - N/A   Clear
5:53 PM 37.0 °F - 19.0 °F 48% 30.28 in 10.0 mi Calm Calm - N/A   Clear
6:53 PM 39.0 °F 36.8 °F 23.0 °F 53% 30.27 in 10.0 mi ESE 3.5 mph - N/A   Clear
7:53 PM 33.1 °F - 19.0 °F 56% 30.30 in 10.0 mi Calm Calm - N/A   Clear
8:53 PM 33.1 °F - 21.0 °F 61% 30.29 in 10.0 mi Calm Calm - N/A   Partly Cloudy
9:53 PM 33.1 °F - 23.0 °F 66% 30.28 in 10.0 mi Calm Calm - N/A   Clear
10:53 PM 32.0 °F - 21.0 °F 64% 30.25 in 10.0 mi Calm Calm - N/A   Clear
11:53 PM 32.0 °F 28.7 °F 21.0 °F 64% 30.23 in 10.0 mi NNE 3.5 mph - N/A   Clear